sat.trackr.live / text

‹ back to catalog

TIANQIN 1 (CAS-6)

NORAD 44879 · 2019-093A

PAYLOAD ACTIVE UNKNOWN

§ Identity

Operator
Country
PRC
Launch date
2019-12-20
Launch site
TAISC
Launch vehicle
Mass (kg)
RCS (m²)

External: N2YO · Heavens-Above · Gunter

§ Orbital elements

Epoch: 2026-09-20T05:23:54.085056Z

Period
96.27 min
Inclination
97.7755°
Eccentricity
0.0012205
Mean motion
14.95815456 rev/d
Perigee alt
571.4 km
Apogee alt
588.3 km
Semi-major
6,958.0 km
B*
1.0124e-4
RAAN
346.3780°
Arg perigee
95.9865°
Mean anomaly
264.2747°
Rev number
36,625

§ Raw data

TIANQIN 1 (CAS-6)1 44879U 19093A   26263.22493154  .00001073  00000+0  10124-3 0  99942 44879  97.7755 346.3780 0012205  95.9865 264.2747 14.95815456366259

JSON: /api/v1/satellites/44879 · /tle

For live sub-satellite position, see the globe view (requires WebGL).

§ Visibility from observer

Set your observer location to see the next 7 days of passes ≥ 10°. The values pass through the URL so the page stays shareable.

No JS? Fill the form by hand. The geolocation button needs JavaScript.

§ Radio — SatNOGS DB

ModeDescriptionDownlinkUplink
QPSK S-band telemetry 2.259 GHz

1 transmitter · refreshed weekly from db.satnogs.org